NOAA 16 DEB, 42386

Orbit data source: Space-Track

NOAA 16 DEB, 42386 is space debris in SSO originally from a launch on Thu, 21 Sep 2000 UTC launched from the Air Force Western Test Range (AFWTR). Debris objects in space refer to the collection of defunct objects orbiting the Earth. Examples of debris include non-operational satellites, rocket bodies, and fragments generated from explosions, collisions, or faulty payload assembly.

Loading next visibility...
Identifier
42386, 2000-055SE
Orbit
SSO
Country
Flag of USUS
Related business
Manufacturer
Unknown
Mission
Spacecraft
Bus & Motor
Unknown
Mass
Unknown
Launch date (UTC)
2000-09-21 (25 years ago)
Launch vehicle
Unknown
Launch site
Air Force Western Test Range (AFWTR)
Object type
Payload
Rocket body
Debris
Shape & HBR
Unknown shape, 0.1 m
Radar Cross Section
Small (<0.1 m²)

Expand to show TLE details & history
Last TLE update: 1 day ago

TLE from 1 day ago
0 NOAA 16 DEB
1 42386U 00055SE  26036.47810789  .00007591  00000-0  26903-2 0  9998
2 42386  98.6865 129.7926 0021366 166.6103 193.5653 14.34655301516459
Epoch: 2026-02-05T11:28Z
TLE epoch observation values (Epoch: 2026-02-05T11:28:28.521Z)
Latitude
-0.00004°
Longitude
-177.95599°
Altitude
794.012 km
Speed
7.449 km/s
True Right ascension
08h 39m 10s
True Declination
0° 00' 00"
Sunlit
Object was in full shadow at epoch
Visualization orbit readout
Latitude
Unknown
Longitude
Unknown
Altitude
Unknown
Speed
Unknown
Apparent Right ascension
Unknown
Apparent Declination
Unknown
Sunlit
N/A
Visualization observer readout
Local Sidereal Time
21:01:18
Azimuth
Unknown
Elevation
Unknown
Doppler factor
Unknown
Orbital elements
Apogee altitude
788.63 km
Perigee altitude
758.07 km
Semi-major axis
7,151.487 km
Eccentricity
0.00214
Inclination
98.6865°
RAAN
129.7926°
Arg. of periapsis
166.6103°
True anomaly
193.50802°
Mean anomaly
193.5653°
Eccentric anomaly
193.53665°
Mean motion
3.58879 °/min
Orbital period
100.31 mins
BSTAR
0.0026903
Loading maneuver chart data...
Computing Atmospheric mass density...
Loading historical data...
Loading historical data...
Loading historical data...
Loading historical data...
Loading historical data...
Loading historical data...
Loading historical data...

Documentation

Showing up to 5 results
|